Weather History for Huntingburg, IN

Change the Weather History Date:

Thursday, April 4, 2013

  Actual Average Record
Temperature  
Mean Temperature 47 °F -  
Max Temperature 57 °F 61 °F 78 °F (2012)
Min Temperature 37 °F 41 °F 30 °F (2002)
Degree Days  
Heating Degree Days 18    
Moisture  
Dew Point 20 °F    
Average Humidity 37    
Maximum Humidity 53    
Minimum Humidity 25    
Precipitation  
Precipitation 0.00 in - - ()
Sea Level Pressure  
Sea Level Pressure 30.12 in    
Wind  
Wind Speed 6 mph (ENE)    
Max Wind Speed 12 mph    
Max Gust Speed -    
Visibility 10 miles    
Events      
Averages and records for this station are not official NWS values.
T = Trace of Precipitation, MM = Missing Value Source: NWS Daily Summary

Daily Weather History Graph

Daily Weather History Graph

Search for Another Location

Airport:

Trip Planner

Search our weather history database for the weather conditions in past years. The results will help you decide how hot, cold, wet, or windy it might be!

Date:

Astronomy

Apr. 04, 2013 Rise Set
Actual Time 7:27 AM EDT 8:14 PM EDT
Civil Twilight 7:01 AM EDT 8:40 PM EDT
Nautical Twilight 6:29 AM EDT 9:12 PM EDT
Astronomical Twilight 5:57 AM EDT 9:45 PM EDT
Moon 3:49 AM EDT (4/4) 2:36 PM EDT (4/4)
Length of Visible Light 13h 39m
Length of Day
12h 46m
Waning Crescent, 34% of the Moon is Illuminated
Apr 4
Waning Crescent
Apr 10
New
Apr 18
First Quarter
Apr 25
Full
May 2
Last Quarter

Hourly Weather History & Observations

Time (EDT) Temp. Windchill Dew Point Humidity Pressure Visibility Wind Dir Wind Speed Gust Speed Precip Events Conditions
12:15 AM 42.8 °F 38.6 °F 19.4 °F 39% 30.29 in 10.0 mi NE 6.9 mph - N/A   Clear
12:35 AM 42.8 °F 38.0 °F 17.6 °F 36% 30.28 in 10.0 mi ENE 8.1 mph - N/A   Clear
12:55 AM 42.8 °F 37.0 °F 17.6 °F 36% 30.27 in 10.0 mi ENE 10.4 mph - N/A   Clear
1:15 AM 42.8 °F 37.0 °F 17.6 °F 36% 30.27 in 10.0 mi ENE 10.4 mph - N/A   Clear
1:55 AM 42.8 °F 37.0 °F 15.8 °F 34% 30.26 in 10.0 mi ENE 10.4 mph - N/A   Clear
2:15 AM 41.0 °F 34.3 °F 15.8 °F 36% 30.24 in 10.0 mi ENE 11.5 mph - N/A   Clear
2:35 AM 41.0 °F 35.2 °F 15.8 °F 36% 30.24 in 10.0 mi ENE 9.2 mph - N/A   Clear
2:55 AM 41.0 °F 35.2 °F 15.8 °F 36% 30.24 in 10.0 mi ENE 9.2 mph - N/A   Clear
3:15 AM 39.2 °F 33.0 °F 15.8 °F 39% 30.23 in 10.0 mi ENE 9.2 mph - N/A   Clear
3:35 AM 39.2 °F 33.6 °F 15.8 °F 39% 30.22 in 10.0 mi ENE 8.1 mph - N/A   Clear
3:55 AM 39.2 °F 33.6 °F 17.6 °F 42% 30.21 in 10.0 mi ENE 8.1 mph - N/A   Clear
4:15 AM 39.2 °F 33.0 °F 17.6 °F 42% 30.20 in 10.0 mi ENE 9.2 mph - N/A   Clear
4:35 AM 39.2 °F 33.6 °F 15.8 °F 39% 30.20 in 10.0 mi ENE 8.1 mph - N/A   Clear
4:55 AM 39.2 °F 34.2 °F 17.6 °F 42% 30.20 in 10.0 mi ENE 6.9 mph - N/A   Clear
5:35 AM 39.2 °F 33.6 °F 17.6 °F 42% 30.19 in 10.0 mi ENE 8.1 mph - N/A   Clear
5:55 AM 39.2 °F 33.6 °F 15.8 °F 39% 30.18 in 10.0 mi ENE 8.1 mph - N/A   Clear
6:15 AM 37.4 °F 31.4 °F 17.6 °F 45% 30.18 in 10.0 mi ENE 8.1 mph - N/A   Clear
6:35 AM 37.4 °F 32.1 °F 15.8 °F 41% 30.17 in 10.0 mi NE 6.9 mph - N/A   Clear
6:55 AM 37.4 °F 32.1 °F 17.6 °F 45% 30.18 in 10.0 mi NNE 6.9 mph - N/A   Clear
7:15 AM 37.4 °F 32.1 °F 17.6 °F 45% 30.17 in 10.0 mi NE 6.9 mph - N/A   Clear
7:35 AM 37.4 °F 32.8 °F 17.6 °F 45% 30.18 in 10.0 mi NE 5.8 mph - N/A   Clear
7:55 AM 37.4 °F 32.8 °F 19.4 °F 48% 30.18 in 10.0 mi NNE 5.8 mph - N/A   Clear
8:15 AM 37.4 °F 32.8 °F 19.4 °F 48% 30.18 in 10.0 mi NE 5.8 mph - N/A   Clear
8:35 AM 37.4 °F 33.8 °F 21.2 °F 52% 30.18 in 10.0 mi NNE 4.6 mph - N/A   Clear
8:55 AM 39.2 °F 35.9 °F 21.2 °F 49% 30.18 in 10.0 mi NE 4.6 mph - N/A   Clear
9:15 AM 39.2 °F 35.0 °F 21.2 °F 49% 30.17 in 10.0 mi NE 5.8 mph - N/A   Clear
9:35 AM 41.0 °F 35.8 °F 19.4 °F 42% 30.16 in 10.0 mi NE 8.1 mph - N/A   Clear
9:55 AM 42.8 °F 38.6 °F 21.2 °F 42% 30.16 in 10.0 mi NE 6.9 mph - N/A   Clear
10:15 AM 44.6 °F 40.2 °F 21.2 °F 39% 30.15 in 10.0 mi NE 8.1 mph - N/A   Clear
10:35 AM 46.4 °F 41.9 °F 21.2 °F 37% 30.15 in 10.0 mi NE 9.2 mph - N/A   Clear
10:55 AM 46.4 °F 42.4 °F 19.4 °F 34% 30.14 in 10.0 mi East 8.1 mph - N/A   Clear
11:15 AM 46.4 °F 43.5 °F 21.2 °F 37% 30.13 in 10.0 mi East 5.8 mph - N/A   Clear
11:35 AM 48.2 °F - 21.2 °F 34% 30.13 in 10.0 mi East 5.8 mph - N/A   Clear
11:55 AM 48.2 °F - 23.0 °F 37% 30.13 in 10.0 mi NE 3.5 mph - N/A   Clear
12:35 PM 51.8 °F - 24.8 °F 35% 30.12 in 10.0 mi NNW 3.5 mph - N/A   Clear
12:55 PM 51.8 °F - 24.8 °F 35% 30.12 in 10.0 mi East 4.6 mph - N/A   Clear
1:35 PM 53.6 °F - 21.2 °F 28% 30.10 in 10.0 mi Calm Calm - N/A   Clear
1:55 PM 53.6 °F - 21.2 °F 28% 30.09 in 10.0 mi NE 4.6 mph - N/A   Clear
2:15 PM 53.6 °F - 19.4 °F 26% 30.09 in 10.0 mi South 3.5 mph - N/A   Clear
2:35 PM 53.6 °F - 21.2 °F 28% 30.08 in 10.0 mi South 3.5 mph - N/A   Clear
2:55 PM 53.6 °F - 21.2 °F 28% 30.08 in 10.0 mi SSE 3.5 mph - N/A   Clear
3:16 PM 53.6 °F - 21.2 °F 28% 30.07 in 10.0 mi South 3.5 mph - N/A   Clear
3:35 PM 55.4 °F - 21.2 °F 26% 30.06 in 10.0 mi SE 4.6 mph - N/A   Clear
3:55 PM 55.4 °F - 21.2 °F 26% 30.05 in 10.0 mi South 3.5 mph - N/A   Clear
4:15 PM 55.4 °F - 21.2 °F 26% 30.04 in 10.0 mi Calm Calm - N/A   Clear
4:35 PM 55.4 °F - 23.0 °F 29% 30.03 in 10.0 mi SSE 3.5 mph - N/A   Clear
4:55 PM 57.2 °F - 21.2 °F 25% 30.03 in 10.0 mi SSW 4.6 mph - N/A   Clear
5:15 PM 57.2 °F - 21.2 °F 25% 30.03 in 10.0 mi Calm Calm - N/A   Clear
5:35 PM 55.4 °F - 21.2 °F 26% 30.03 in 10.0 mi WNW 4.6 mph - N/A   Clear
6:15 PM 55.4 °F - 23.0 °F 29% 30.03 in 10.0 mi SSW 3.5 mph - N/A   Clear
6:35 PM 55.4 °F - 21.2 °F 26% 30.03 in 10.0 mi SSW 3.5 mph - N/A   Clear
6:55 PM 55.4 °F - 23.0 °F 29% 30.03 in 10.0 mi Calm Calm - N/A   Clear
7:15 PM 55.4 °F - 24.8 °F 31% 30.03 in 10.0 mi Calm Calm - N/A   Clear
7:35 PM 55.4 °F - 21.2 °F 26% 30.03 in 10.0 mi SW 3.5 mph - N/A   Clear
7:55 PM 53.6 °F - 21.2 °F 28% 30.02 in 10.0 mi Calm Calm - N/A   Clear
8:15 PM 53.6 °F - 21.2 °F 28% 30.02 in 10.0 mi Calm Calm - N/A   Clear
8:35 PM 50.0 °F - 21.2 °F 32% 30.02 in 10.0 mi SSW 3.5 mph - N/A   Clear
8:55 PM 48.2 °F - 21.2 °F 34% 30.02 in 10.0 mi WSW 3.5 mph - N/A   Clear
9:15 PM 46.4 °F 45.2 °F 23.0 °F 40% 30.02 in 10.0 mi West 3.5 mph - N/A   Clear
9:35 PM 46.4 °F 45.2 °F 24.8 °F 43% 30.03 in 10.0 mi West 3.5 mph - N/A   Clear
9:55 PM 44.6 °F - 24.8 °F 46% 30.03 in 10.0 mi Calm Calm - N/A   Clear
10:15 PM 44.6 °F - 24.8 °F 46% 30.03 in 10.0 mi Calm Calm - N/A   Clear
10:35 PM 42.8 °F - 24.8 °F 49% 30.03 in 10.0 mi Calm Calm - N/A   Clear
10:55 PM 42.8 °F - 24.8 °F 49% 30.03 in 10.0 mi Calm Calm - N/A   Clear
11:15 PM 42.8 °F - 24.8 °F 49% 30.03 in 10.0 mi Calm Calm - N/A   Clear
11:35 PM 41.0 °F - 24.8 °F 53% 30.03 in 10.0 mi Calm Calm - N/A   Clear
11:55 PM 41.0 °F - 23.0 °F 49% 30.03 in 10.0 mi Calm Calm - N/A   Clear